Tracking 31027 objects as of 19-Jul-2025
HD Live streaming from Space Station
objects crossing your sky now

METEOR 2-8 DEB

Track METEOR 2-8 DEB now!
10-day predictions


NORAD ID: 36355
Int'l Code: 1982-025AR
Perigee: 776.4 km
Apogee: 804.3 km
Inclination: 82.5 °
Period: 100.5 minutes
Semi major axis: 7161 km
RCS: 0.0127 m2 (small)
Launch date: March 25, 1982
Source: Commonwealth of Independent States (former USSR) (CIS)
Launch site: PLESETSK MISSILE AND SPACE COMPLEX (PKMTR)

Note: This is SATELLITE DEBRIS
Your satellite tracking list
STARLINK-31009
Track 1 satellite(s)




NASA's NSSDC Master Catalog

Two Line Element Set (TLE):
1 36355U 82025AR  25198.42374851  .00005211  00000-0  19116-2 0  9997
2 36355  82.5136  96.1461 0019448 340.8814  19.1641 14.32548314164109
Source of the keplerian elements: AFSPC